Location: A�t �Alizem
(31.2076°N, 8.7872°W)
Time: 14:06:17
(UTC+00:00)

deb Explorer IX - Pass Details

Date: 25 June 2021
Orbit: 542 x 1234 km, 38.9° (Epoch: 23 July)

Event Time Altitude Azimuth Distance (km) Brightness Sun altitude
Rises 20:39:38 0° 199° (SSW) 2,676 ? -11.1°
Reaches altitude 10° 20:42:36 10° 176° (S) 1,795 ? -11.6°
Enters shadow 20:44:02 14° 155° (SSE) 1,560 ? -11.8°
